Location: East Guldeford
(50.9500°N, 0.7500°E)
Time: 09:12:07
(UTC+00:00)

Iridium 4 Rocket - Pass Details

Date: 12 May 2021
Orbit: 583 x 906 km, 86.9° (Epoch: 16 June)

Event Time Altitude Azimuth Distance (km) Brightness Sun altitude
Exits shadow 20:47:24 10° 155° (SSE) 2,532 5.6 -9.6°
Maximum altitude 20:52:54 47° 84° (E) 1,190 4.2 -10.2°
Drops below altitude 10° 20:58:32 10° 13° (NNE) 2,598 6.7 -10.8°
Sets 21:01:04 0° 8° (N) 3,532 7.6 -11.1°
